KM4BH Weather Reports


Display with metric or nautical units.
time (UTC)temp
F
wind
direction
speed
MPH
gust
MPH
rain 1hr
in
rain 24hr
in
rain mn
in
humidity
%
barometer
mb
20210926212056 81 0 0.0 3.0 0.00 0.00 0.00 51 1020.1
20210926211557 81 199 1.0 3.0 0.00 0.00 0.00 52 1020.1
20210926211042 81 8 0.0 2.0 0.00 0.00 0.00 52 1020.2
20210926210543 81 259 0.0 3.0 0.00 0.00 0.00 50 1020.3
20210926210051 80 219 1.0 4.0 0.00 0.00 0.00 52 1020.3
20210926205541 80 20 1.0 4.0 0.00 0.00 0.00 50 1020.3
20210926205041 81 233 2.0 4.0 0.00 0.00 0.00 48 1020.2
20210926204658 82 77 0.0 7.0 0.00 0.00 0.00 51 1020.4
20210926204106 81 38 2.0 7.0 0.00 0.00 0.00 50 1020.3
20210926203543 82 212 2.0 4.0 0.00 0.00 0.00 48 1020.3
20210926203131 82 11 0.0 3.0 0.00 0.00 0.00 51 1020.5
20210926202542 82 253 1.0 5.0 0.00 0.00 0.00 53 1020.5
20210926202042 82 233 2.0 5.0 0.00 0.00 0.00 50 1020.5
20210926201615 81 131 1.0 4.0 0.00 0.00 0.00 49 1020.4
20210926201105 81 0 2.0 4.0 0.00 0.00 0.00 47 1020.4
20210926200546 81 278 3.0 4.0 0.00 0.00 0.00 52 1020.4
20210926200145 81 264 1.0 4.0 0.00 0.00 0.00 50 1020.4
20210926195542 81 267 2.0 4.0 0.00 0.00 0.00 51 1020.5
20210926195050 81 92 1.0 3.0 0.00 0.00 0.00 52 1020.5
20210926194616 81 252 1.0 5.0 0.00 0.00 0.00 52 1020.6
20210926194047 80 174 2.0 5.0 0.00 0.00 0.00 51 1020.7
20210926193556 80 259 0.0 3.0 0.00 0.00 0.00 53 1020.9
20210926193100 79 321 1.0 3.0 0.00 0.00 0.00 52 1020.8
20210926192541 80 161 1.0 3.0 0.00 0.00 0.00 53 1020.9
20210926192041 78 0 0.0 3.0 0.00 0.00 0.00 61 1020.9
20210926191625 79 124 1.0 3.0 0.00 0.00 0.00 54 1021.0
20210926191101 81 353 1.0 5.0 0.00 0.00 0.00 53 1020.9
20210926190546 82 254 1.0 5.0 0.00 0.00 0.00 52 1021.0
20210926190143 81 343 0.0 2.0 0.00 0.00 0.00 57 1020.9
20210926185545 81 110 0.0 4.0 0.00 0.00 0.00 53 1021.0
20210926185042 80 217 1.0 4.0 0.00 0.00 0.00 50 1021.1
20210926184623 81 8 1.0 5.0 0.00 0.00 0.00 56 1021.3
20210926184041 80 221 1.0 5.0 0.00 0.00 0.00 55 1021.3
20210926183543 80 266 2.0 5.0 0.00 0.00 0.00 51 1021.4
20210926183215 80 113 1.0 2.0 0.00 0.00 0.00 53 1021.5
20210926182541 80 109 0.0 2.0 0.00 0.00 0.00 55 1021.5
20210926182045 80 99 1.0 4.0 0.00 0.00 0.00 53 1021.6
20210926181643 79 65 2.0 4.0 0.00 0.00 0.00 52 1021.8
20210926181111 80 233 1.0 6.0 0.00 0.00 0.00 52 1021.8
20210926180541 79 170 3.0 6.0 0.00 0.00 0.00 54 1021.9
20210926180225 79 266 1.0 4.0 0.00 0.00 0.00 53 1021.9
20210926175543 79 233 1.0 4.0 0.00 0.00 0.00 56 1022.1
20210926175054 80 340 2.0 4.0 0.00 0.00 0.00 53 1022.1
20210926174600 79 143 0.0 5.0 0.00 0.00 0.00 58 1022.2
20210926174100 78 255 2.0 5.0 0.00 0.00 0.00 54 1022.2
20210926173541 79 222 0.0 2.0 0.00 0.00 0.00 57 1022.2
20210926173203 78 127 1.0 2.0 0.00 0.00 0.00 54 1022.4
20210926172543 78 82 1.0 4.0 0.00 0.00 0.00 53 1022.4
20210926172102 78 144 2.0 5.0 0.00 0.00 0.00 55 1022.5
20210926171806 78 266 2.0 5.0 0.00 0.00 0.00 54 1022.5
20210926171101 77 106 1.0 6.0 0.00 0.00 0.00 54 1022.5
20210926170552 77 271 3.0 6.0 0.00 0.00 0.00 53 1022.6
20210926170108 78 205 1.0 3.0 0.00 0.00 0.00 53 1022.6
20210926165543 78 173 1.0 4.0 0.00 0.00 0.00 56 1022.6
20210926165042 78 1 1.0 4.0 0.00 0.00 0.00 55 1022.7
20210926164556 78 214 1.0 2.0 0.00 0.00 0.00 56 1022.7
20210926164048 77 10 0.0 3.0 0.00 0.00 0.00 59 1022.7
20210926163540 77 347 1.0 4.0 0.00 0.00 0.00 58 1022.7
20210926163222 77 306 1.0 4.0 0.00 0.00 0.00 62 1022.8
20210926162546 76 87 0.0 2.0 0.00 0.00 0.00 63 1022.8
20210926162041 75 87 0.0 3.0 0.00 0.00 0.00 62 1022.8
20210926161610 75 86 1.0 3.0 0.00 0.00 0.00 62 1022.9
20210926161042 75 179 0.0 4.0 0.00 0.00 0.00 62 1022.9
20210926160547 74 14 1.0 4.0 0.00 0.00 0.00 60 1023.0
20210926160156 74 257 1.0 4.0 0.00 0.00 0.00 60 1023.1
20210926155548 74 287 2.0 4.0 0.00 0.00 0.00 62 1023.1
20210926155043 73 233 1.0 4.0 0.00 0.00 0.00 61 1023.1
20210926154628 73 244 1.0 3.0 0.00 0.00 0.00 63 1023.1
20210926154100 72 211 2.0 3.0 0.00 0.00 0.00 63 1023.2
20210926153542 72 6 1.0 3.0 0.00 0.00 0.00 64 1023.1
20210926153129 72 44 1.0 2.0 0.00 0.00 0.00 64 1023.1
20210926152559 72 0 0.0 2.0 0.00 0.00 0.00 65 1023.1
20210926152043 71 231 0.0 2.0 0.00 0.00 0.00 67 1023.1
20210926151728 70 245 0.0 0.0 0.00 0.00 0.00 71 1023.0
20210926151059 70 0 0.0 1.0 0.00 0.00 0.00 69 1023.0
20210926150601 70 0 0.0 1.0 0.00 0.00 0.00 69 1022.9
20210926150235 70 205 0.0 1.0 0.00 0.00 0.00 70 1023.0
20210926145552 69 60 0.0 1.0 0.00 0.00 0.00 72 1022.9
20210926145052 69 0 0.0 1.0 0.00 0.00 0.00 78 1023.0
20210926144619 68 0 0.0 2.0 0.00 0.00 0.00 77 1022.9
20210926144103 68 157 0.0 3.0 0.00 0.00 0.00 79 1023.1
20210926143547 67 274 0.0 3.0 0.00 0.00 0.00 80 1023.1
20210926143143 66 0 0.0 1.0 0.00 0.00 0.00 81 1022.9
20210926142553 66 0 0.0 1.0 0.00 0.00 0.00 83 1022.9
20210926142042 65 0 0.0 1.0 0.00 0.00 0.00 84 1023.0
20210926141627 64 0 0.0 0.0 0.00 0.00 0.00 84 1022.9
20210926141042 63 320 0.0 0.0 0.00 0.00 0.00 88 1023.0
20210926140545 62 0 0.0 1.0 0.00 0.00 0.00 93 1022.9
20210926140106 61 0 0.0 1.0 0.00 0.00 0.00 96 1022.9
20210926135544 60 0 0.0 0.0 0.00 0.00 0.00 97 1022.8
20210926135041 60 0 0.0 0.0 0.00 0.00 0.00 97 1022.7
20210926134732 59 0 0.0 0.0 0.00 0.00 0.00 97 1022.7
20210926134048 59 0 0.0 0.0 0.00 0.00 0.00 97 1022.6
20210926133541 58 0 0.0 0.0 0.00 0.00 0.00 98 1022.6
20210926133110 58 0 0.0 0.0 0.00 0.00 0.00 98 1022.6
20210926132542 57 0 0.0 0.0 0.00 0.00 0.00 98 1022.6
20210926132042 57 0 0.0 0.0 0.00 0.00 0.00 98 1022.5
20210926131718 56 0 0.0 0.0 0.00 0.00 0.00 98 1022.5
20210926131048 55 0 0.0 0.0 0.00 0.00 0.00 98 1022.5
20210926130542 55 0 0.0 0.0 0.00 0.00 0.00 98 1022.5
20210926130106 54 0 0.0 0.0 0.00 0.00 0.00 98 1022.3
20210926125546 54 0 0.0 0.0 0.00 0.00 0.00 98 1022.4
20210926125043 53 0 0.0 0.0 0.00 0.00 0.00 98 1022.4
20210926124702 53 0 0.0 0.0 0.00 0.00 0.00 98 1022.4
20210926124043 53 0 0.0 0.0 0.00 0.00 0.00 98 1022.4
20210926123543 52 0 0.0 0.0 0.00 0.00 0.00 98 1022.3
20210926123131 52 0 0.0 0.0 0.00 0.00 0.00 98 1022.2
20210926122606 52 0 0.0 0.0 0.00 0.00 0.00 98 1022.1
20210926122045 52 0 0.0 0.0 0.00 0.00 0.00 97 1022.1
20210926121713 52 0 0.0 0.0 0.00 0.00 0.00 97 1021.9
20210926121052 52 0 0.0 0.0 0.00 0.00 0.00 97 1021.9
20210926120543 52 0 0.0 0.0 0.00 0.00 0.00 97 1021.8
20210926120118 51 0 0.0 0.0 0.00 0.00 0.00 97 1021.8
20210926115550 51 0 0.0 0.0 0.00 0.00 0.00 97 1021.7
20210926115048 51 0 0.0 0.0 0.00 0.00 0.00 97 1021.8
20210926114633 51 0 0.0 0.0 0.00 0.00 0.00 97 1021.7
20210926114052 52 0 0.0 0.0 0.00 0.00 0.00 97 1021.7
20210926113558 52 0 0.0 0.0 0.00 0.00 0.00 98 1021.6
20210926113128 51 0 0.0 0.0 0.00 0.00 0.00 97 1021.6
20210926112541 51 0 0.0 0.0 0.00 0.00 0.00 97 1021.5
20210926112043 51 0 0.0 0.0 0.00 0.00 0.00 97 1021.5
20210926111604 52 0 0.0 0.0 0.00 0.00 0.00 97 1021.5
20210926111101 52 0 0.0 0.0 0.00 0.00 0.00 97 1021.4
20210926110542 52 0 0.0 0.0 0.00 0.00 0.00 97 1021.4
20210926110131 52 0 0.0 0.0 0.00 0.00 0.00 97 1021.3
20210926105551 52 0 0.0 0.0 0.00 0.00 0.00 97 1021.3
20210926105043 52 0 0.0 0.0 0.00 0.00 0.00 97 1021.2
20210926104604 52 0 0.0 0.0 0.00 0.00 0.00 97 1021.2
20210926104042 52 0 0.0 0.0 0.00 0.00 0.00 97 1021.2
20210926103542 52 0 0.0 0.0 0.00 0.00 0.00 97 1021.3
20210926103222 52 0 0.0 0.0 0.00 0.00 0.00 97 1021.1
20210926102543 52 0 0.0 0.0 0.00 0.00 0.00 97 1021.1
20210926102042 53 0 0.0 0.0 0.00 0.00 0.00 97 1021.0
20210926101609 52 0 0.0 0.0 0.00 0.00 0.00 97 1020.9
20210926101043 52 0 0.0 0.0 0.00 0.00 0.00 97 1021.0
20210926100550 53 0 0.0 0.0 0.00 0.00 0.00 97 1020.9
20210926100101 52 0 0.0 0.0 0.00 0.00 0.00 97 1020.9
20210926095542 52 0 0.0 0.0 0.00 0.00 0.00 97 1021.0
20210926095127 52 0 0.0 0.0 0.00 0.00 0.00 97 1020.9
20210926094855 52 0 0.0 0.0 0.00 0.00 0.00 97 1020.9
20210926094042 52 0 0.0 0.0 0.00 0.00 0.00 97 1020.8
20210926093542 52 0 0.0 0.0 0.00 0.00 0.00 97 1020.8
20210926093147 52 0 0.0 0.0 0.00 0.00 0.00 97 1020.8
20210926092542 52 0 0.0 0.0 0.00 0.00 0.00 96 1020.8
20210926092046 52 0 0.0 0.0 0.00 0.00 0.00 96 1020.9
20210926091831 53 0 0.0 0.0 0.00 0.00 0.00 96 1020.8
20210926091042 53 0 0.0 0.0 0.00 0.00 0.00 96 1020.7
20210926090544 53 0 0.0 0.0 0.00 0.00 0.00 96 1020.8
20210926090223 53 0 0.0 0.0 0.00 0.00 0.00 97 1020.7
20210926085600 53 0 0.0 0.0 0.00 0.00 0.00 97 1020.7
20210926085044 53 0 0.0 0.0 0.00 0.00 0.00 97 1020.6
20210926084626 53 0 0.0 0.0 0.00 0.00 0.00 96 1020.7
20210926084111 53 0 0.0 0.0 0.00 0.00 0.00 96 1020.7
20210926083550 53 0 0.0 0.0 0.00 0.00 0.00 97 1020.7
20210926083147 53 0 0.0 0.0 0.00 0.00 0.00 96 1020.6
20210926082541 53 0 0.0 0.0 0.00 0.00 0.00 96 1020.6
20210926082042 53 0 0.0 0.0 0.00 0.00 0.00 96 1020.6
20210926081618 54 0 0.0 0.0 0.00 0.00 0.00 96 1020.6
20210926081043 53 0 0.0 0.0 0.00 0.00 0.00 96 1020.6
20210926080617 54 0 0.0 0.0 0.00 0.00 0.00 96 1020.6
20210926080121 54 0 0.0 0.0 0.00 0.00 0.00 96 1020.6
20210926075548 54 0 0.0 0.0 0.00 0.00 0.00 96 1020.6
20210926075042 54 0 0.0 0.0 0.00 0.00 0.00 96 1020.5
20210926074625 54 0 0.0 0.0 0.00 0.00 0.00 96 1020.5
20210926074115 54 0 0.0 0.0 0.00 0.00 0.00 96 1020.6
20210926073541 54 0 0.0 0.0 0.00 0.00 0.00 96 1020.6
20210926073122 54 0 0.0 0.0 0.00 0.00 0.00 96 1020.6
20210926072544 54 0 0.0 0.0 0.00 0.00 0.00 96 1020.6
20210926072042 54 0 0.0 0.0 0.00 0.00 0.00 96 1020.6
20210926071622 54 0 0.0 0.0 0.00 0.00 0.00 96 1020.7
20210926071042 55 0 0.0 0.0 0.00 0.00 0.00 96 1020.7
20210926070602 55 0 0.0 0.0 0.00 0.00 0.00 96 1020.6
20210926070130 55 0 0.0 0.0 0.00 0.00 0.00 96 1020.7
20210926065541 55 0 0.0 0.0 0.00 0.00 0.00 97 1020.8
20210926065052 55 0 0.0 0.0 0.00 0.00 0.00 96 1020.8
20210926064639 55 0 0.0 0.0 0.00 0.00 0.00 96 1021.0
20210926064042 55 0 0.0 0.0 0.00 0.00 0.00 96 1020.9
20210926063606 55 0 0.0 0.0 0.00 0.00 0.00 96 1020.9
20210926063102 55 0 0.0 0.0 0.00 0.00 0.00 96 1020.8
20210926062544 55 0 0.0 0.0 0.00 0.00 0.00 96 1020.9
20210926062046 55 0 0.0 0.0 0.00 0.00 0.00 96 1020.8
20210926061700 55 0 0.0 0.0 0.00 0.00 0.00 96 1020.8
20210926061047 55 0 0.0 0.0 0.00 0.00 0.00 96 1020.8
20210926060603 55 0 0.0 0.0 0.00 0.00 0.00 96 1020.8
20210926060145 55 0 0.0 0.0 0.00 0.00 0.00 96 1020.8
20210926055546 55 0 0.0 0.0 0.00 0.00 0.00 96 1020.8
20210926055042 55 0 0.0 0.0 0.00 0.00 0.00 96 1020.7
20210926054636 55 0 0.0 0.0 0.00 0.00 0.00 95 1020.8
20210926054054 56 0 0.0 0.0 0.00 0.00 0.00 96 1020.9
20210926053543 56 0 0.0 0.0 0.00 0.00 0.00 96 1020.8
20210926053052 56 0 0.0 0.0 0.00 0.00 0.00 96 1020.8
20210926052542 56 0 0.0 0.0 0.00 0.00 0.00 95 1020.8
20210926052047 55 0 0.0 0.0 0.00 0.00 0.00 95 1020.7
20210926051555 56 0 0.0 0.0 0.00 0.00 0.00 94 1020.7
20210926051045 56 0 0.0 0.0 0.00 0.00 0.00 94 1020.8
20210926050543 56 0 0.0 0.0 0.00 0.00 0.00 94 1020.8
20210926050144 56 0 0.0 0.0 0.00 0.00 0.00 94 1020.8
20210926045542 57 0 0.0 0.0 0.00 0.00 0.00 95 1020.9
20210926045046 56 0 0.0 0.0 0.00 0.00 0.00 95 1021.0
20210926044638 56 0 0.0 0.0 0.00 0.00 0.00 95 1021.0
20210926044042 56 0 0.0 0.0 0.00 0.00 0.00 94 1021.1
20210926043542 56 0 0.0 0.0 0.00 0.00 0.00 94 1021.1
20210926043116 57 0 0.0 0.0 0.00 0.00 0.00 94 1021.1
20210926042544 57 0 0.0 0.0 0.00 0.00 0.00 94 1021.1
20210926042042 57 0 0.0 0.0 0.00 0.00 0.00 94 1021.3
20210926041619 57 0 0.0 0.0 0.00 0.00 0.00 93 1021.2
20210926041054 57 0 0.0 0.0 0.00 0.00 0.00 93 1021.2
20210926040551 57 0 0.0 0.0 0.00 0.00 0.00 93 1021.1
20210926040139 57 0 0.0 0.0 0.00 0.00 0.00 93 1021.0
20210926035541 57 0 0.0 0.0 0.00 0.00 0.00 93 1021.0
20210926035105 58 0 0.0 0.0 0.00 0.00 0.00 93 1021.0
20210926034654 58 0 0.0 0.0 0.00 0.00 0.00 93 1021.0
20210926034056 58 0 0.0 0.0 0.00 0.00 0.00 92 1021.0
20210926033544 58 0 0.0 0.0 0.00 0.00 0.00 92 1020.9
20210926033118 58 0 0.0 0.0 0.00 0.00 0.00 93 1020.8
20210926032542 58 0 0.0 0.0 0.00 0.00 0.00 93 1020.7
20210926032043 58 0 0.0 0.0 0.00 0.00 0.00 92 1020.8
20210926031642 58 0 0.0 0.0 0.00 0.00 0.00 92 1020.7
20210926031106 58 0 0.0 0.0 0.00 0.00 0.00 92 1020.7
20210926030545 58 0 0.0 0.0 0.00 0.00 0.00 92 1020.7
20210926030212 58 0 0.0 0.0 0.00 0.00 0.00 91 1020.7
20210926025612 58 0 0.0 0.0 0.00 0.00 0.00 91 1020.6
20210926025042 59 0 0.0 0.0 0.00 0.00 0.00 91 1020.5
20210926024634 59 0 0.0 0.0 0.00 0.00 0.00 91 1020.3
20210926024059 59 0 0.0 0.0 0.00 0.00 0.00 90 1020.3
20210926023542 59 0 0.0 0.0 0.00 0.00 0.00 90 1020.2
20210926023220 59 0 0.0 0.0 0.00 0.00 0.00 90 1020.2
20210926022543 59 0 0.0 0.0 0.00 0.00 0.00 90 1020.2
20210926022042 59 0 0.0 0.0 0.00 0.00 0.00 90 1020.2
20210926021622 59 0 0.0 0.0 0.00 0.00 0.00 90 1020.1
20210926021042 60 0 0.0 0.0 0.00 0.00 0.00 89 1020.1
20210926020544 60 0 0.0 0.0 0.00 0.00 0.00 89 1020.0
20210926020136 60 0 0.0 0.0 0.00 0.00 0.00 89 1020.0
20210926015544 60 0 0.0 0.0 0.00 0.00 0.00 89 1020.0
20210926015105 60 0 0.0 0.0 0.00 0.00 0.00 89 1020.1
20210926014637 61 0 0.0 0.0 0.00 0.00 0.00 89 1020.0
20210926014053 61 0 0.0 0.0 0.00 0.00 0.00 89 1020.0
20210926013605 61 0 0.0 0.0 0.00 0.00 0.00 88 1019.9
20210926013136 61 0 0.0 0.0 0.00 0.00 0.00 88 1019.8
20210926012551 61 0 0.0 0.0 0.00 0.00 0.00 88 1019.9
20210926012041 61 0 0.0 0.0 0.00 0.00 0.00 88 1019.8
20210926011647 62 0 0.0 0.0 0.00 0.00 0.00 87 1019.8
20210926011041 62 0 0.0 0.0 0.00 0.00 0.00 86 1019.7
20210926010558 62 0 0.0 0.0 0.00 0.00 0.00 85 1019.6
20210926010129 62 0 0.0 0.0 0.00 0.00 0.00 85 1019.5
20210926005542 63 0 0.0 0.0 0.00 0.00 0.00 85 1019.6
20210926005045 63 0 0.0 0.0 0.00 0.00 0.00 84 1019.6
20210926004643 63 0 0.0 0.0 0.00 0.00 0.00 83 1019.7
20210926004059 63 0 0.0 0.0 0.00 0.00 0.00 82 1019.6
20210926003544 63 0 0.0 0.0 0.00 0.00 0.00 83 1019.5
20210926003144 63 0 0.0 0.0 0.00 0.00 0.00 82 1019.5
20210926002545 64 0 0.0 0.0 0.00 0.00 0.00 81 1019.5
20210926002050 64 0 0.0 0.0 0.00 0.00 0.00 81 1019.4
20210926001621 64 0 0.0 0.0 0.00 0.00 0.00 81 1019.4
20210926001041 64 0 0.0 0.0 0.00 0.00 0.00 82 1019.3
20210926000541 65 321 0.0 0.0 0.00 0.00 0.00 81 1019.4
20210926000126 65 0 0.0 0.0 0.00 0.00 0.00 81 1019.3
20210925235542 65 0 0.0 0.0 0.00 0.00 0.00 80 1019.3
20210925235041 66 0 0.0 0.0 0.00 0.00 0.00 80 1019.4
20210925234602 66 0 0.0 1.0 0.00 0.00 0.00 79 1019.3
20210925234041 66 0 0.0 1.0 0.00 0.00 0.00 77 1019.2
20210925233543 67 0 0.0 1.0 0.00 0.00 0.00 76 1019.2
20210925233140 67 321 0.0 1.0 0.00 0.00 0.00 76 1019.1
20210925232542 68 321 0.0 1.0 0.00 0.00 0.00 76 1019.1
20210925232043 68 321 0.0 1.0 0.00 0.00 0.00 75 1019.1
20210925231637 69 321 0.0 1.0 0.00 0.00 0.00 74 1019.2
20210925231044 69 319 0.0 1.0 0.00 0.00 0.00 72 1019.2
20210925230541 70 0 0.0 1.0 0.00 0.00 0.00 72 1019.1
20210925230113 70 0 0.0 1.0 0.00 0.00 0.00 72 1019.1
20210925225544 71 318 0.0 1.0 0.00 0.00 0.00 71 1019.1
20210925225041 71 318 0.0 1.0 0.00 0.00 0.00 69 1019.1
20210925224609 72 318 0.0 0.0 0.00 0.00 0.00 67 1019.1
20210925224050 74 318 0.0 0.0 0.00 0.00 0.00 64 1019.1
20210925223542 75 0 0.0 0.0 0.00 0.00 0.00 62 1019.0
20210925223120 76 0 0.0 0.0 0.00 0.00 0.00 59 1019.0
20210925222542 77 0 0.0 0.0 0.00 0.00 0.00 57 1019.0
20210925222049 77 0 0.0 0.0 0.00 0.00 0.00 57 1018.8
20210925221616 78 0 0.0 1.0 0.00 0.00 0.00 57 1018.8
20210925221042 79 0 0.0 1.0 0.00 0.00 0.00 53 1018.9
20210925220550 79 0 0.0 1.0 0.00 0.00 0.00 52 1018.8
20210925220233 78 0 0.0 1.0 0.00 0.00 0.00 57 1018.8
20210925215549 78 0 0.0 1.0 0.00 0.00 0.00 56 1018.7
20210925215046 77 0 0.0 1.0 0.00 0.00 0.00 55 1018.7
20210925214840 77 60 0.0 2.0 0.00 0.00 0.00 53 1018.5
20210925214051 78 60 1.0 2.0 0.00 0.00 0.00 50 1018.6
20210925213541 79 24 0.0 2.0 0.00 0.00 0.00 49 1018.7
20210925213118 79 231 1.0 3.0 0.00 0.00 0.00 47 1018.7